TIME,DELAY(SENSOR),PRES,T(CTD),SAL,OXYGEN,RAWTEMP,T(OPTODE),TCPHASE,FLUOR,BETA(BETA700),BETA(BETA412),BETA(BETA440),CDOM,C(CSC),ED(ED411.90),ED(ED443.80),ED(ED489.40),ED(ED554.70),LU(LU412.20),LU(LU443.80),LU(LU489.40),LU(LU555.00),COMP,TILTX,TILTX(TILTY),CHECK
1373038528,5807,496.6799926757812500,17.6846008300781250,36.4869003295898440,222.9729003906250000,165.6938934326172000,17.6829605102539060,31.4739799499511720,51,98,87,78,67,10193,2146956196,2147514185,2147274148,2147456219,2147082112,2146954642,2147651803,2147126838,2442,-2,8,7151
1373038655,5805,485.3200073242187500,17.7609996795654300,36.5001983642578100,224.1963043212890600,163.3009948730468800,17.7551803588867200,31.3786106109619140,50,96,86,78,65,10194,2146958070,2147513737,2147274505,2147454994,2147082779,2146956160,2147651474,2147128000,1395,-1,8,27344
1373038784,5807,473.9299926757812500,17.8264007568359380,36.5098991394043000,224.9259033203125000,161.0561981201172000,17.8229503631591800,31.3106498718261720,50,96,86,79,66,10191,2146959387,2147514797,2147272941,2147448146,2147081316,2146961947,2147650240,2147127414,885,-1,8,41474
1373038899,5805,463.6600036621094000,17.8887996673584000,36.5182991027832000,226.3601989746093800,159.0238037109375000,17.8843097686767580,31.2106399536132800,51,97,87,80,67,10188,2146957586,2147516498,2147270793,2147450688,2147077120,2146959040,2147649782,2147131794,3160,-1,8,17067
1373039026,5807,452.2600097656250000,17.9622001647949220,36.5321998596191400,227.5962982177734400,156.7095947265625000,17.9541893005371100,31.1172294616699220,50,96,86,80,67,10194,2146958509,2147515712,2147269641,2147454966,2147072027,2146956342,2147650496,2147127981,2712,-1,8,19595
1373039143,5803,441.4700012207031000,18.0030994415283200,36.5362014770507800,228.8193054199218800,155.1723022460937500,18.0006103515625000,31.0354499816894530,50,96,86,81,66,10191,2146957046,2147514953,2147268388,2147451657,2147077193,2146955849,2147646674,2147131867,2578,-1,8,18157
1373039270,5804,429.6799926757812500,18.0671997070312500,36.5400009155273440,230.5345001220703000,153.0998992919922000,18.0631999969482420,30.9225597381591800,50,97,86,80,66,10194,2146956699,2147513828,2147270290,2147452416,2147081225,2146957248,2147646921,2147129152,1649,-1,8,6209
1373039385,5802,418.8599853515625000,18.1077003479003900,36.5414009094238300,231.6159973144531200,151.7447052001953000,18.1041297912597660,30.8514900207519530,50,95,86,80,65,10188,2146956160,2147512054,2147270765,2147452114,2147074468,2146956781,2147650130,2147128484,984,-1,8,61112
1373039502,5806,407.7999877929687500,18.1571998596191400,36.5381011962890600,234.4925994873047000,150.0910949707031200,18.1540908813476560,30.6894893646240230,50,97,86,78,66,10191,2146955968,2147512905,2147271140,2147448960,2147076891,2146957961,2147645229,2147125723,687,-1,8,14428
1373039617,5808,397.1600036621094000,18.1867008209228500,36.5396995544433600,239.1791992187500000,148.9868011474609400,18.1874504089355470,30.4512100219726560,50,96,86,79,65,10191,2146958893,2147515108,2147270418,2147449819,2147077120,2146958464,2147648612,2147128850,2714,-1,8,64412
1373039746,5803,385.5499877929687500,18.2289009094238280,36.5405998229980500,242.9425964355468800,147.7993927001953000,18.2233200073242200,30.2597999572753900,51,94,86,79,64,10197,2146956982,2147514550,2147270208,2147451730,2147067099,2146957869,2147649892,2147127158,3462,-1,8,62992
1373039873,5807,374.5299987792969000,18.2420997619628900,36.5399017333984400,247.1972045898437500,147.2333068847656200,18.2404308319091800,30.0578498840332030,50,94,85,79,64,10195,2146960155,2147514404,2147270043,2147450633,2147069787,2146958893,2147648530,2147125814,2710,-1,8,36397
1373040000,5804,363.9299926757812500,18.2852993011474600,36.5405998229980500,242.6295928955078000,145.9680938720703000,18.2786598205566400,30.2501106262207030,50,96,86,79,65,10185,2146954020,2147513718,2147271378,2147446116,2147075410,2146957010,2147650633,2147129920,2364,-1,8,56945
1373040141,5801,352.6600036621094000,18.3204994201660160,36.5410995483398440,245.7266998291015600,144.5559997558593800,18.3213291168212900,30.0891304016113280,50,96,86,81,63,10190,2146956864,2147511972,2147268946,2147454317,2147072274,2146958445,2147650742,2147128950,1994,-1,8,59585
1373040280,5806,341.8699951171875000,18.3817996978759770,36.5457000732421900,250.4631042480468800,142.7380065917968800,18.3762798309326170,29.8520107269287100,50,98,87,79,64,10182,2146959250,2147513746,2147268937,2147447396,2147075227,2146956790,2147649929,2147126281,1486,-1,8,26081
1373040435,5803,328.6499938964844000,18.4153003692626950,36.5472984313964840,252.8029022216797000,141.6159973144531200,18.4101905822753900,29.7337303161621100,50,98,87,80,62,10184,2146955099,2147512566,2147267629,2147448585,2147077632,2146962313,2147645604,2147127360,778,-1,8,10138
1373040548,5804,317.3599853515625000,18.4542999267578120,36.5535011291503900,251.4792938232422000,140.0785064697265600,18.4566707611084000,29.7719707489013670,50,97,87,81,63,10184,2146957211,2147515611,2147267529,2147449572,2147071012,2146960137,2147648512,2147126089,3507,-1,8,24612
1373040665,5804,305.5400085449219000,18.5032997131347660,36.5606994628906250,250.2937011718750000,138.5567016601562500,18.5026798248291000,29.8048400878906250,50,97,85,79,63,10183,2146961307,2147512283,2147266377,2147449088,2147073572,2146960274,2147654217,2147127323,2799,-1,8,63799
1373040768,5806,294.9800109863281000,18.5393009185791000,36.5647010803222660,249.7017974853515600,137.5057983398437500,18.5344600677490230,29.8174400329589840,51,98,87,81,64,10189,2146955702,2147514102,2147270326,2147448246,2147076470,2146962294,2147658596,2147129024,2975,-1,8,37518
1373040883,5804,283.5799865722656000,18.5814990997314450,36.5670013427734400,248.3683013916015600,135.8159942626953000,18.5855503082275400,29.8551406860351560,51,101,87,80,63,10181,2146956388,2147514249,2147268608,2147445814,2147080182,2146960448,2147663524,2147129197,2315,-1,8,48857
1373041007,5804,272.2600097656250000,18.6678009033203120,36.5724983215332000,240.7407073974609400,133.3300018310547000,18.6607398986816400,30.1711692810058600,51,98,87,81,64,10178,2146958738,2147517952,2147267090,2147448192,2147077723,2146969572,2147676626,2147127625,1635,-1,8,9404
1373041155,5808,261.6400146484375000,18.7180004119873050,36.5763015747070300,239.2875061035156200,131.4882049560547000,18.7164497375488280,30.2145004272460940,52,98,85,80,65,10183,2146957952,2147512676,2147270180,2147445851,2147078089,2146968740,2147670884,2147130304,1817,-2,8,48865
1373041315,5807,250.8500061035156200,18.8719005584716800,36.5811004638671900,240.4983978271484400,126.5297012329101600,18.8664894104003900,30.0929298400878900,55,104,88,81,65,10173,2146957110,2147514240,2147267684,2147445732,2147074221,2146964370,2147653421,2147128292,789,-1,8,49813
1373041453,5804,238.7299957275390600,18.9813995361328120,36.5844001770019500,240.5167999267578000,122.7032012939453100,18.9823093414306640,30.0418796539306640,62,103,87,80,63,10167,2146955712,2147511661,2147266477,2147446692,2147076452,2146965622,2147657545,2147126683,3195,-2,8,38229
1373041568,5808,227.9900054931640600,19.1931991577148440,36.5891990661621100,240.5628051757812500,115.5354003906250000,19.1993808746337900,29.9458599090576170,72,109,86,81,63,10147,2146956123,2147513197,2147266898,2147446756,2147073170,2146968566,2147665508,2147129462,291,-2,8,59050
1373041685,5804,217.5200042724609400,19.3152008056640620,36.5959014892578100,239.8406066894531200,111.8261032104492200,19.3117694854736330,29.9310302734375000,73,108,87,83,64,10151,2146958528,2147517074,2147268617,2147445860,2147085440,2147017718,2147777728,2147135350,2474,-2,8,59239
1373041812,5805,206.0099945068359400,19.5708999633789060,36.5719985961914060,251.0482940673828000,102.7548980712890600,19.5867996215820300,29.3073501586914060,62,107,88,83,64,10145,2146957302,2147516324,2147269513,2147445595,2147086363,2147010605,2147753453,2147134930,2122,-1,8,37725
1373041915,5803,197.3000030517578000,20.0445003509521500,36.6365013122558600,253.7046051025390600,87.3778686523437500,20.0536193847656250,28.9946594238281250,62,103,86,80,65,10157,2146958802,2147517065,2147270509,2147445604,2147091574,2147048923,2147817133,2147138386,3470,-2,8,40461
1373041995,5802,191.7200012207031200,20.3614006042480470,36.6832008361816400,232.0305023193359400,77.8476791381836000,20.3433609008789060,29.8578796386718750,56,104,87,82,65,10171,2146959067,2147519478,2147277494,2147446070,2147107318,2147155702,2148003465,2147151378,2511,-1,8,30981
1373042050,5803,188.3399963378906200,20.4265003204345700,36.6794013977050800,228.2958984375000000,75.5529327392578100,20.4131793975830080,30.0088291168212900,57,101,87,80,65,10178,2146958674,2147517970,2147281526,2147443803,2147113188,2147176310,2148035236,2147151661,2187,-1,9,42906
1373042117,5803,184.2899932861328000,20.4335002899169920,36.6689987182617200,230.1763000488281200,74.8165969848632800,20.4355792999267580,29.9079093933105470,55,98,86,79,64,10181,2146957165,2147517814,2147278043,2147441398,2147108781,2147167012,2148000384,2147149220,2210,-2,8,39745
1373042184,5802,180.2599945068359400,20.5231990814209000,36.6712989807128900,233.5975952148437500,71.6980972290039000,20.5305004119873050,29.7038402557373050,55,96,85,80,64,10184,2146956617,2147521947,2147282185,2147438674,2147125257,2147243702,2148123355,2147156434,2525,-1,9,30374
1373042251,5808,176.2100067138672000,20.6490001678466800,36.6795005798339840,233.4441986083984400,68.0284576416015600,20.6422500610351560,29.6638298034667970,55,97,88,79,65,10182,2146958528,2147522029,2147285632,2147440530,2147134893,2147293860,2148210386,2147163593,2648,-2,9,40630
1373042335,5804,171.8399963378906200,20.7112998962402340,36.6842994689941400,232.5760040283203000,66.0041732788086000,20.7039108276367200,29.6789894104003900,55,97,86,80,65,10187,2146958189,2147522139,2147288539,2147439515,2147147446,2147345947,2148277961,2147168438,2500,-1,9,38866
1373042438,5809,167.5500030517578000,20.7726001739501950,36.6785011291503900,232.9517059326172000,63.9573593139648440,20.7662792205810550,29.6347999572753900,55,96,85,79,64,10181,2146962852,2147526573,2147287762,2147442093,2147166528,2147420909,2148374701,2147172653,2651,-2,9,60853
1373042541,5805,163.7599945068359400,20.9195003509521500,36.6813011169433600,232.3795013427734400,59.4329681396484400,20.9042091369628900,29.6037502288818360,57,97,86,79,64,10183,2146960073,2147524571,2147292324,2147436516,2147184987,2147489243,2148474870,2147177243,2510,-2,9,51928
1373042658,5803,159.9299926757812500,20.9426002502441400,36.6825981140136700,232.1107940673828000,58.3490791320800800,20.9372596740722660,29.6025600433349600,56,97,85,80,64,10187,2146961307,2147526564,2147292781,2147435565,2147205056,2147548882,2148542674,2147183451,2122,-1,9,18574
1373042773,5805,156.0899963378906200,20.9971008300781250,36.6825981140136700,231.4010009765625000,56.6955604553222660,20.9876995086669920,29.6150703430175780,57,96,87,80,64,10187,2146956105,2147523227,2147280219,2147433545,2147162733,2147337499,2148199862,2147159085,1888,-2,9,60919
1373042937,5808,151.2599945068359400,21.0548992156982420,36.6595001220703100,235.4770965576172000,54.6598587036132800,21.0498104095459000,29.3963699340820300,56,100,87,80,64,10176,2146961910,2147539035,2147309787,2147435090,2147297554,2147892699,2149037952,2147214966,1925,-1,9,44683
1373043028,5809,147.4499969482422000,21.1303997039794920,36.6283988952636700,238.8173980712890600,52.2381515502929700,21.1237201690673830,29.2104892730712900,56,99,86,80,63,10177,2146964342,2147541714,2147317449,2147434907,2147340306,2148006573,2149171072,2147226093,2657,-1,9,44016
1373043119,5806,144.0200042724609400,21.1725997924804700,36.5787010192871100,248.0720062255859400,50.8320693969726560,21.1666507720947270,28.7766494750976560,55,103,86,81,63,10173,2146968320,2147548754,2147323328,2147436644,2147389677,2148139337,2149332233,2147235337,3165,-1,9,31976
1373043252,5805,139.1300048828125000,21.5116004943847660,36.6391983032226560,249.1096954345703000,40.0752906799316400,21.4953308105468750,28.5958690643310550,58,102,87,81,63,10163,2146973805,2147555876,2147332946,2147438893,2147477805,2148350646,2149597842,2147251712,3481,-2,9,53482
1373043331,5802,135.7700042724609400,21.7096996307373050,36.6581001281738300,238.2723999023437500,33.6298789978027340,21.6925392150878900,28.9990196228027340,62,101,87,81,65,10165,2146972800,2147557421,2147340635,2147436772,2147542893,2148513307,2149822802,2147265526,2494,-2,9,63234
1373043446,5806,132.2400054931640600,21.8348007202148440,36.6505012512207000,235.6100006103515600,29.4816799163818360,21.8195705413818360,29.0696601867675780,68,104,87,80,64,10165,2146975296,2147559396,2147343076,2147434002,2147581641,2148586688,2149931666,2147274395,2159,-2,9,43820
1373043591,5807,127.8499984741211000,22.0377998352050780,36.6431999206543000,235.6157073974609400,22.0664596557617200,22.0468597412109380,28.9754199981689450,76,108,89,83,63,10151,2146976960,2147566061,2147356955,2147431707,2147692818,2148796425,2150255524,2147296585,993,-2,9,25966
1373043682,5804,123.8099975585937500,22.2460002899169920,36.6184005737304700,237.1605987548828000,16.1190795898437500,22.2293605804443360,28.8290100097656250,83,118,88,83,63,10137,2146983104,2147577408,2147371977,2147434029,2147825307,2149068845,2150619949,2147324891,941,-1,8,30332
1373043773,5804,119.8399963378906200,22.3283004760742200,36.6165008544921900,238.4423065185547000,13.1197700500488280,22.3214702606201170,28.7324790954589840,87,116,88,82,62,10131,2146989348,2147583606,2147385554,2147433499,2147997714,2149396571,2151057142,2147362587,1237,-2,9,40658
1373043878,5808,115.6699981689453100,22.4932003021240230,36.6226997375488300,238.5173034667968800,7.9352798461914060,22.4808006286621100,28.6640892028808600,94,122,89,82,62,10127,2147000128,2147598637,2147406262,2147434880,2148234048,2149819483,2151598573,2147400548,1840,-2,9,8574
1373043993,5806,112.3899993896484400,22.6938991546630860,36.6148986816406250,236.7409057617187500,1.6183110475540161,22.6751403808593750,28.6659698486328120,103,118,88,83,62,10116,2147004150,2147603776,2147423899,2147433307,2148384356,2150072768,2151948205,2147435154,979,-2,9,1021
1373044233,5806,107.8600006103515600,22.8535003662109380,36.6052017211914060,235.8119964599609400,-3.9805231094360350,22.8475704193115230,28.6385192871093750,103,122,90,83,64,10101,2147014784,2147619876,2147450925,2147434852,2148667602,2150492498,2152580562,2147497993,129,-1,8,54210
1373044348,5803,104.0299987792968800,22.9822006225585940,36.5960006713867200,236.8851928710937500,-7.9755039215087890,22.9707202911376950,28.5391998291015620,112,122,90,84,62,10090,2147025773,2147644955,2147496173,2147436516,2149093165,2151218395,2153559314,2147588480,831,-1,9,21383
1373044469,5803,99.1600036621093800,23.0998001098632800,36.5864982604980500,238.3179016113281200,-13.0593900680542000,23.1275806427001950,28.4104804992675780,114,124,91,84,63,10081,2147034505,2147650889,2147491254,2147437010,2149326089,2151360539,2153540489,2147608685,1383,-1,9,1890
1373044524,5804,96.1399993896484400,23.2903995513916000,36.5885009765625000,239.8027954101562500,-17.8677997589111330,23.2760696411132800,28.2837390899658200,119,130,92,87,62,10057,2147071524,2147707648,2147580141,2147439744,2150316571,2153125979,2155818340,2147821211,1573,-1,9,6660
1373044579,5804,93.3199996948242200,23.3495006561279300,36.5632019042968750,242.9468994140625000,-20.0837707519531250,23.3445606231689450,28.1162300109863280,120,132,91,85,63,10053,2147094619,2147743762,2147636662,2147446125,2150921444,2154030336,2156855396,2147939766,1297,-1,9,8924
1373044634,5801,90.6500015258789000,23.3957996368408200,36.5494995117187500,242.8966064453125000,-21.5722599029541000,23.3905792236328120,28.0999107360839840,126,131,92,86,65,10034,2147101156,2147747062,2147625024,2147444544,2151162907,2154230857,2156900480,2147969910,1164,-2,9,6221
1373044689,5802,88.3899993896484400,23.5139999389648440,36.5447006225585940,245.8751068115234400,-25.5659694671630860,23.5141105651855470,27.9200096130371100,133,138,94,90,62,10004,2147107117,2147745910,2147628068,2147443757,2151368777,2154376100,2156886985,2147978185,1357,-2,9,19091
1373044746,5805,86.6600036621093800,23.5834007263183600,36.5364990234375000,251.1620025634765600,-27.3828392028808600,23.5703506469726560,27.6705608367919920,142,139,93,90,62,9993,2147207625,2147897764,2147857453,2147457289,2153748672,2158392164,2161976886,2148481142,1275,-2,9,22546
1373044801,5805,85.4199981689453100,23.6082000732421880,36.5363006591796900,255.1956939697265600,-28.3549098968505860,23.6004505157470700,27.4893302917480470,144,139,97,94,64,9979,2147229696,2147926299,2147901504,2147462345,2154213504,2158998317,2162566107,2148550061,897,-2,9,47236
1373044904,5807,83.3399963378906200,23.7395992279052730,36.5279006958007800,266.7547912597656000,-32.4389915466308600,23.7269592285156250,26.9712390899658200,130,132,91,87,63,10024,2147271579,2147989540,2147991177,2147471899,2155405229,2160693723,2164352402,2148761033,737,-2,9,35052
1373045007,5803,81.4000015258789000,23.8495006561279300,36.5112991333007800,286.3984069824219000,-35.9233512878418000,23.8349800109863280,26.1861495971679700,107,127,92,85,63,10030,2147308845,2148038555,2148032841,2147477275,2156390089,2162049920,2165754724,2148950006,776,-1,9,43814
1373045104,5806,78.9899978637695300,23.9493007659912100,36.4953994750976560,311.1041870117187500,-38.9207916259765600,23.9279708862304700,25.2960605621337900,104,126,91,85,64,10018,2147401938,2148168109,2148214235,2147485467,2158687286,2165577289,2169584356,2149375826,936,-1,9,27244
1373045159,5804,77.0100021362304700,24.0088996887207030,36.4898986816406250,298.8200073242187500,-41.0995903015136700,23.9955997467041000,25.6851005554199220,87,121,91,87,64,10040,2147277705,2147976704,2147883474,2147460562,2155627190,2160154130,2162424109,2148683501,1276,-1,9,48346
1373045226,5802,75.2200012207031200,24.1254005432128900,36.4630012512207000,287.1610107421875000,-44.7786788940429700,24.1098804473876950,26.0534000396728500,82,119,91,85,62,10061,2147522724,2148330349,2148349732,2147492498,2161999296,2170340516,2173852086,2149883172,1424,-1,9,61194
1373045407,5804,73.3199996948242200,24.3237991333007800,36.4336013793945300,308.7012939453125000,-51.4819488525390600,24.3183193206787100,25.2288093566894530,76,118,90,85,63,10062,2147683382,2148544896,2148554724,2147508150,2165884333,2175972745,2178535213,2150383058,1275,-2,9,49592
1373045486,5807,71.1699981689453100,24.5223007202148440,36.4350013732910160,299.0799865722656000,-57.7675514221191400,24.5140590667724600,25.4803295135498050,72,124,92,87,61,10061,2147803657,2148694665,2148708882,2147524608,2168906221,2179898441,2181494921,2150721709,732,-2,9,17406
1373045565,5808,69.6200027465820300,24.7868995666503900,36.4313011169433600,320.5773010253906000,-65.4231262207031200,24.7528591156005860,24.6817493438720700,72,120,91,86,63,10065,2147872832,2148777865,2148786084,2147533357,2170741814,2182355968,2183382921,2150943579,793,-2,9,31819
1373045733,5809,67.2099990844726600,24.9855995178222660,36.3977012634277340,345.0723876953125000,-72.6585617065429700,24.9789390563964840,23.8542194366455080,68,116,90,85,60,10062,2148032054,2148957147,2148899483,2147533632,2174943963,2187814802,2187472804,2151404717,3539,-1,8,27326
1373045812,5809,65.3700027465820300,25.0013008117675780,36.3325004577636700,334.0574951171875000,-73.4415130615234400,25.0034294128417970,24.1722908020019530,67,115,89,85,59,10067,2148174080,2149117467,2149009426,2147538523,2179207616,2193486308,2192232914,2151972580,1903,-2,9,12940
1373045927,5808,63.5800018310546900,25.0886993408203120,36.3106994628906250,360.2033081054687500,-74.7892684936523400,25.0455894470214840,23.3993797302246100,67,115,90,84,63,10077,2148294784,2149251620,2149186468,2147571693,2182096896,2196630235,2194236681,2152279542,970,-1,8,643
1373046048,5807,61.0299987792968750,25.2334003448486330,36.2969017028808600,359.0506896972656000,-80.3777770996093800,25.2205696105957030,23.3683891296386720,65,117,89,84,61,10075,2148611328,2149603218,2149504886,2147603474,2189868946,2205946432,2201256969,2153134473,969,-1,9,60562
1373046115,5806,58.9799995422363300,25.3026008605957030,36.2881011962890600,377.5270080566406000,-82.9225234985351600,25.3003292083740230,22.8391494750976560,63,117,89,84,61,10074,2148915017,2149939757,2149804525,2147635382,2197864155,2215680073,2208894217,2154066285,961,-1,9,42267
1373046182,5804,57.3800010681152340,25.4197006225585940,36.2844009399414060,378.3107910156250000,-86.0456466674804700,25.3982791900634770,22.7835903167724600,62,115,87,86,63,10080,2149094646,2150116909,2149923830,2147650203,2203051017,2221498578,2212941046,2154573613,1099,-1,9,60168
1373046315,5806,54.7700004577636700,25.5489997863769530,36.2804985046386700,357.2543029785156000,-90.9486694335937500,25.5522193908691400,23.2992591857910160,61,115,90,84,59,10075,2149549613,2150547721,2150209197,2147667812,2215009170,2234704685,2221788489,2155726710,309,-2,9,45640
1373046457,5805,51.9000015258789060,26.1504001617431640,36.2146987915039060,381.9537963867187500,-108.5370025634765600,26.1060199737548830,22.4377593994140620,59,114,90,86,59,10052,2148599488,2149370294,2148961234,2147543771,2185839369,2193991506,2184711030,2151184438,503,-1,9,604
1373046491,5807,51.9700012207031250,26.1452007293701170,36.2173995971679700,380.8511962890625000,-109.2928009033203100,26.1298809051513670,22.4579696655273440,59,113,89,86,59,10050,2149950116,2150940214,2150538889,2147726116,2225496987,2245772306,2229103570,2156815954,632,-1,9,42895
1373046684,5806,49.5999984741210940,26.4491004943847660,36.1646003723144500,459.0992126464844000,-118.7727966308593800,26.4295101165771500,20.5184402465820300,57,112,89,85,62,10054,2150480219,2151438710,2150932763,2147790134,2238932873,2260131913,2239127844,2158331328,679,-1,9,54486
1373046939,5805,47.8800010681152340,26.6021003723144530,36.1474990844726560,512.9398193359375000,-124.6033020019531200,26.6141796112060550,19.3760795593261720,57,113,88,84,57,10056,2150854445,2151770358,2151119186,2147779995,2248635657,2270040850,2245271094,2159006153,433,-2,9,53838
1373047032,5808,45.7200012207031250,26.6685009002685550,36.1454010009765600,420.2484130859375000,-126.8267974853515600,26.6846809387207030,21.2954597473144530,57,111,89,85,58,10052,2151302528,2152144219,2151330038,2147798390,2260446848,2281385060,2252202477,2160208091,307,-2,8,65163
1373047113,5807,43.6399993896484400,26.7205009460449220,36.1425018310546900,420.8999023437500000,-128.4178009033203000,26.7351493835449220,21.2628593444824220,55,111,89,85,58,10060,2151825792,2152611364,2151627785,2147824182,2275047826,2296329737,2261631835,2161546907,94,-2,8,51129
1373047182,5804,41.7400016784668000,26.7436008453369140,36.1399993896484400,411.0450134277344000,-129.2633972167968800,26.7619895935058600,21.4858303070068360,56,110,87,84,59,10060,2152264329,2152988297,2151816073,2147802532,2287270281,2308589513,2270199350,2162918326,2786,-1,9,59050
1373047244,5804,39.7599983215332000,26.7553005218505860,36.1395988464355500,409.0444946289062500,-129.4425048828125000,26.7676792144775400,21.5316505432128900,56,112,88,85,58,10058,2152864603,2153531099,2152209152,2147868653,2304434898,2325878710,2281939748,2165146898,2126,-1,8,59194
1373047289,5807,37.5900001525878900,26.7544994354248050,36.1404991149902340,397.8789062500000000,-129.5222015380859400,26.7702102661132800,21.8025398254394530,57,111,88,85,59,10063,2153449856,2154031040,2152543314,2147902573,2323901668,2345646400,2294681371,2167337152,2684,-2,9,9235
1373047334,5804,35.2799987792968750,26.8085002899169920,36.1398010253906250,381.2145996093750000,-131.2447052001953000,26.8248901367187500,22.2046203613281250,56,110,88,85,59,10063,2154158070,2154656274,2152985673,2147970468,2340612425,2360886930,2303682541,2169172672,2882,-1,9,46478